Yakima, WA

4:25 PM PDT on March 25, 2017 (GMT -0700)
Yakima Air Term-McAllister

Weather History for KYKM - September, 2013

Change the Weather History Date:

Wednesday, September 25, 2013

  Actual Average Record
Temperature  
Mean Temperature 56 °F 58 °F  
Max Temperature 68 °F 75 °F 93 °F (1952)
Min Temperature 43 °F 41 °F 27 °F (1972)
Degree Days  
Heating Degree Days 9 8  
Month to date heating degree days 67 115  
Since 1 July heating degree days 67 163  
Cooling Degree Days 0 0  
Month to date cooling degree days 135 31  
Year to date cooling degree days 970 471  
Growing Degree Days 7 (Base 50)    
Moisture  
Dew Point 38 °F    
Average Humidity 56    
Maximum Humidity 83    
Minimum Humidity 29    
Precipitation  
Precipitation 0.00 in 0.01 in 0.38 in (1982)
Month to date precipitation 0.13 0.29  
Year to date precipitation 4.49 5.06  
Snow  
Snow 0.00 in 0.00 in 0.00 in (2002)
Month to date snowfall 0.0 0.0  
Year to date snowfall 1.1 8.6  
Since 1 July snowfall 0.0 0.0  
Snow Depth 0.00 in    
Sea Level Pressure  
Sea Level Pressure 29.84 in    
Wind  
Wind Speed 6 mph (WNW)    
Max Wind Speed 22 mph    
Max Gust Speed 28 mph    
Visibility 10 miles    
Events      
T = Trace of Precipitation, MM = Missing Value Source: NWS Daily Summary

Daily Weather History Graph

Daily Weather History Graph

Search for Another Location

Airport or City:

Trip Planner

Search our weather history database for the weather conditions in past years. The results will help you decide how hot, cold, wet, or windy it might be!

Date:

Astronomy

Sep. 25, 2013 Rise Set
Actual Time 6:53 AM PDT 6:53 PM PDT
Civil Twilight 6:23 AM PDT 7:23 PM PDT
Nautical Twilight 5:47 AM PDT 7:58 PM PDT
Astronomical Twilight 5:11 AM PDT 8:34 PM PDT
Moon 10:45 PM PDT 1:21 PM PDT
Length of Visible Light 12h 59m
Length of Day
11h 59m
Waning Gibbous, 63% of the Moon is Illuminated
Sep 25
Waning Gibbous
Sep 26
Last Quarter
Oct 4
New
Oct 11
First Quarter
Oct 18
Full

Hourly Weather History & Observations

Time (PDT) Temp. Windchill Dew Point Humidity Pressure Visibility Wind Dir Wind Speed Gust Speed Precip Events Conditions
12:53 AM 48.9 °F - 39.0 °F 69% 29.79 in 10.0 mi NNW 4.6 mph - N/A   Clear
1:53 AM 46.9 °F - 39.0 °F 74% 29.79 in 10.0 mi West 4.6 mph - N/A   Scattered Clouds
2:53 AM 45.0 °F 42.6 °F 39.0 °F 80% 29.79 in 10.0 mi West 4.6 mph - N/A   Overcast
3:53 AM 46.9 °F - 39.9 °F 77% 29.79 in 10.0 mi West 3.5 mph - N/A   Overcast
4:53 AM 46.0 °F 43.1 °F 41.0 °F 83% 29.80 in 10.0 mi West 5.8 mph - N/A   Overcast
5:53 AM 46.9 °F - 41.0 °F 80% 29.80 in 10.0 mi West 5.8 mph - N/A   Overcast
6:53 AM 46.9 °F - 41.0 °F 80% 29.82 in 10.0 mi West 5.8 mph - N/A   Mostly Cloudy
7:53 AM 48.9 °F - 42.1 °F 77% 29.83 in 10.0 mi Calm Calm - N/A   Overcast
8:53 AM 52.0 °F - 43.0 °F 71% 29.84 in 10.0 mi NW 3.5 mph - N/A   Mostly Cloudy
9:53 AM 55.9 °F - 39.9 °F 55% 29.85 in 10.0 mi Calm Calm - N/A   Mostly Cloudy
10:53 AM 60.1 °F - 41.0 °F 49% 29.84 in 10.0 mi Variable 3.5 mph - N/A   Scattered Clouds
11:53 AM 61.0 °F - 39.0 °F 44% 29.83 in 10.0 mi Calm Calm - N/A   Clear
12:53 PM 64.9 °F - 36.0 °F 34% 29.82 in 10.0 mi WNW 6.9 mph - N/A   Mostly Cloudy
1:53 PM 66.9 °F - 34.0 °F 30% 29.81 in 10.0 mi South 5.8 mph - N/A   Mostly Cloudy
2:53 PM 66.9 °F - 33.1 °F 28% 29.82 in 10.0 mi South 6.9 mph - N/A   Mostly Cloudy
3:53 PM 66.0 °F - 34.0 °F 30% 29.82 in 10.0 mi SW 8.1 mph - N/A   Mostly Cloudy
4:53 PM 66.9 °F - 36.0 °F 32% 29.83 in 10.0 mi NW 13.8 mph - N/A   Mostly Cloudy
5:53 PM 63.0 °F - 35.1 °F 35% 29.84 in 10.0 mi NW 17.3 mph 25.3 mph N/A   Scattered Clouds
6:53 PM 59.0 °F - 35.1 °F 41% 29.86 in 10.0 mi WNW 13.8 mph 23.0 mph N/A   Scattered Clouds
7:53 PM 55.9 °F - 35.1 °F 45% 29.89 in 10.0 mi WNW 8.1 mph - N/A   Scattered Clouds
8:53 PM 55.9 °F - 35.1 °F 45% 29.91 in 10.0 mi Variable 3.5 mph - N/A   Partly Cloudy
9:53 PM 55.9 °F - 36.0 °F 47% 29.94 in 10.0 mi WNW 9.2 mph - N/A   Mostly Cloudy
10:53 PM 55.9 °F - 37.0 °F 49% 29.94 in 10.0 mi NW 6.9 mph - N/A   Overcast
11:53 PM 55.9 °F - 37.0 °F 49% 29.93 in 10.0 mi NW 9.2 mph - N/A   Overcast